FALCON 9 DEB, 52893

Orbit data source: Space-Track

FALCON 9 DEB, 52893 is space debris in LEO originally from a launch on Sun, 19 Jun 2022 UTC launched from the Air Force Eastern Test Range (AFETR). Debris objects in space refer to the collection of defunct objects orbiting the Earth. Examples of debris include non-operational satellites, rocket bodies, and fragments generated from explosions, collisions, or faulty payload assembly.

Loading next visibility...
Identifier
52893, 2022-064F
Orbit
LEO
Country
Flag of USUS
Related business
Manufacturer
SpaceX/Seattle
Mission
Spacecraft
Bus & Motor
Unknown
Mass
~50 kg wet, ~50 kg dry
Launch date (UTC)
2022-06-19 (3 years ago)
Launch vehicle
Unknown
Launch site
Air Force Eastern Test Range (AFETR)
Object type
Payload
Rocket body
Debris
Shape & HBR
Cyl, 3.5 m
Radar Cross Section
0.110 m², Medium (>0.1 m² and < 1m²)

Expand to show TLE details & history
Last TLE update: 17 hours ago

TLE from 17 hours ago
0 FALCON 9 DEB
1 52893U 22064F   25310.24535148  .00011212  00000-0  35392-3 0  9996
2 52893  52.9903 297.1900 0007273 159.3899 200.7395 15.33333079145483
Epoch: 2025-11-06T05:53Z
TLE epoch observation values (Epoch: 2025-11-06T05:53:18.367Z)
Latitude
-0.00009°
Longitude
163.15697°
Altitude
471.414 km
Speed
7.629 km/s
True Right ascension
19h 48m 45s
True Declination
0° 00' 00"
Sunlit
Object was in daylight at epoch
Visualization orbit readout
Latitude
Unknown
Longitude
Unknown
Altitude
Unknown
Speed
Unknown
Apparent Right ascension
Unknown
Apparent Declination
Unknown
Sunlit
N/A
Visualization observer readout
Local Sidereal Time
18:59:11
Azimuth
Unknown
Elevation
Unknown
Doppler factor
Unknown
Orbital elements
Apogee altitude
471.138 km
Perigee altitude
461.183 km
Semi-major axis
6,844.297 km
Eccentricity
0.00073
Inclination
52.9903°
RAAN
297.19°
Arg. of periapsis
159.3899°
True anomaly
200.71001°
Mean anomaly
200.7395°
Eccentric anomaly
200.72475°
Mean motion
3.8331 °/min
Orbital period
93.92 mins
BSTAR
0.00035392
Loading maneuver chart data...
Computing Atmospheric mass density...
Loading historical data...
Loading historical data...
Loading historical data...
Loading historical data...
Loading historical data...
Loading historical data...
Loading historical data...
Other satellites on launch #64 in the year 2022 (2022-06-19 UTC)

Documentation

Showing up to 5 results
|